Location: Kutna Hora
(49.9500°N, 15.2670°E)
Time: 00:15:27
(UTC+02:00)

ISS - Pass Details

Date: 24 March 2019
Orbit: 408 x 410 km, 51.6° (Epoch: 23 April)

Event Time Altitude Azimuth Distance (km) Brightness Sun altitude
Rises 19:27:05 0° 231° (SW) 2,328 0.5 -11.8°
Reaches altitude 10° 19:29:13 10° 224° (SW) 1,469 -0.6 -12.1°
Maximum altitude 19:32:22 43° 152° (SSE) 583 -3.4 -12.6°
Enters shadow 19:34:02 23° 92° (E) 925 -2.6 -12.9°
